Temperature
17 18 18 19 19 19 18 17 16 17 17 17 17 17 18 18 18 18 18 18 18 17 17 17 16 16 16 16 15 15 15 14 14 13 13 13 13 13 12 12 12 12 12 11
17 18 18 18 18 18 18 18 17 17 17 16 17 18 17 17 17 17 17 17 17 17 17 17 16 16 16 15 15 15 14 14 13 13 13 13 12 12 12 11 11 11 11 11
15 16 17 17 17 18 17 17 17 17 16 16 16 16 16 17 17 17 17 17 17 16 16 16 16 16 15 15 15 14 14 14 13 13 12 12 12 11 11 11 11 11 11 11
14 15 16 16 17 17 17 17 16 16 16 16 16 17 17 17 17 17 16 16 16 16 16 16 16 15 15 15 14 14 14 13 13 12 12 12 11 11 11 11 10 10 10 10
13 14 15 16 17 17 16 16 16 15 15 16 16 16 15 16 16 16 16 16 16 16 15 15 15 15 14 14 14 13 13 13 12 12 12 11 11 11 11 10 10 10 10 9
13 14 14 15 16 17 16 15 15 15 15 15 15 13 13 15 16 16 16 15 15 15 15 15 14 14 14 14 13 13 13 12 12 12 12 11 11 11 10 10 10 9 9 9
12 13 14 14 16 16 15 15 16 16 16 15 14 14 15 15 15 15 15 15 15 15 14 14 14 14 13 13 13 13 12 12 12 11 11 11 11 10 10 10 9 9 9 9
11 12 13 15 15 14 14 15 16 16 16 15 15 15 15 14 14 14 14 14 14 14 14 13 13 13 13 13 12 12 12 12 11 11 11 10 10 10 9 9 9 9 8 8
12 13 14 15 15 16 16 15 15 15 15 15 14 14 14 14 14 14 14 13 13 13 13 13 12 12 12 12 12 11 11 11 11 10 10 10 10 9 9 9 8 8 8 8
12 12 13 15 15 15 15 15 15 15 15 15 14 14 13 13 13 13 13 13 13 12 12 12 12 11 12 11 11 11 11 11 10 10 10 9 9 9 8 8 8 8 7 7
11 12 13 14 14 15 15 15 15 14 14 14 14 13 13 13 13 12 12 12 12 12 12 11 11 11 11 11 11 10 10 10 10 9 9 9 9 8 8 8 8 8 7 7
12 13 12 13 14 14 14 14 14 14 13 13 13 13 12 12 12 12 12 11 11 11 11 11 10 10 10 10 10 10 10 9 9 9 8 8 8 8 8 8 7 7 7 7
14 14 14 14 14 13 13 13 13 13 13 13 12 12 12 12 11 11 11 11 11 10 10 10 10 10 10 9 9 9 9 9 9 8 8 8 8 8 7 7 7 7 6 6
14 13 13 13 13 13 13 13 12 12 12 12 12 11 11 11 11 11 10 10 10 10 10 9 9 9 9 9 9 8 8 8 8 8 8 7 7 7 7 7 6 6 6 6
13 13 13 12 12 12 12 12 12 11 11 11 11 11 11 10 10 10 10 10 9 9 9 9 9 8 8 8 8 8 8 8 7 7 7 7 7 6 6 6 6 6 6 5
12 12 12 12 12 11 11 11 11 11 11 10 10 10 10 10 10 10 9 9 9 9 8 8 8 8 8 7 7 7 7 7 7 7 6 6 6 6 6 5 5 5 5 5
11 11 11 11 11 11 10 10 10 10 10 10 10 10 10 9 9 9 9 8 8 8 8 8 7 7 7 7 7 7 7 6 6 6 6 6 5 5 5 5 5 5 4 4
12 11 11 11 11 10 10 10 10 10 10 9 9 9 9 9 9 8 8 8 8 8 7 7 7 7 7 7 6 6 6 6 6 5 5 5 5 5 4 4 4 4 4 3
11 11 11 10 10 10 10 9 9 9 9 9 9 9 8 8 8 8 8 8 7 7 7 7 6 6 6 6 6 6 6 5 5 5 5 5 4 4 4 4 3 3 3 3
11 10 10 10 10 9 9 9 9 9 8 8 8 8 8 8 8 7 7 7 7 7 6 6 6 6 6 5 5 5 5 5 5 5 4 4 4 3 3 3 3 3 2 2
10 10 10 10 9 9 9 8 8 8 8 8 8 7 7 7 7 7 7 7 6 6 6 6 6 5 5 5 5 5 4 4 4 4 4 3 3 3 3 3 2 2 2 2
10 9 9 9 9 8 8 8 8 8 7 7 7 7 7 7 6 6 6 6 6 6 5 5 5 5 5 5 4 4 4 4 4 3 3 3 3 2 2 2 2 2 1 1
9 9 9 8 8 8 8 7 7 7 7 7 7 6 6 6 6 6 6 6 5 5 5 5 5 4 4 4 4 4 3 3 3 3 3 2 2 2 2 1 1 1 1 1
9 8 8 8 8 7 7 7 7 6 6 6 6 6 6 6 6 6 5 5 5 5 4 4 4 4 4 4 3 3 3 3 2 2 2 2 2 1 1 1 1 1 1 0
8 8 7 7 7 7 6 6 6 6 5 5 5 5 5 5 5 5 5 5 4 4 4 4 4 3 3 3 3 3 2 2 2 2 1 1 1 1 1 0 0 0 0 0
7 7 7 6 6 6 6 6 5 5 5 5 5 5 5 4 4 4 4 4 4 4 3 3 3 3 3 3 3 2 2 2 2 1 1 1 1 0 0 0 -0 -0 -0 -0
6 6 6 6 5 5 5 5 5 4 4 4 4 4 4 4 4 4 4 3 3 3 3 3 3 3 2 2 2 2 2 1 1 1 1 1 0 0 -0 -0 -0 -0 -0 -1
Wind_Speed
5 6 4 4 6 5 6 7 7 7 6 7 6 6 5 4 4 4 4 4 5 5 5 5 4 4 4 4 4 5 5 4 4 4 3 2 2 2 1 1 1 1 1 0
4 4 3 3 5 6 5 5 5 4 5 5 4 3 3 3 5 4 4 4 4 5 5 5 5 5 4 4 4 5 5 4 4 3 3 3 2 2 2 1 1 1 1 1
3 5 4 4 5 4 3 3 5 6 6 3 2 3 5 5 5 4 4 4 4 4 5 5 6 6 5 5 4 4 4 4 3 4 3 3 3 2 2 2 1 1 1 1
1 3 4 5 4 2 3 1 1 2 2 2 4 4 3 4 5 3 3 3 3 3 3 3 3 4 4 4 4 4 4 3 4 4 4 3 3 2 2 2 2 2 2 2
3 2 6 5 4 1 2 2 2 2 1 1 2 4 3 1 3 4 3 3 4 4 4 3 3 4 4 4 4 3 3 4 4 4 4 3 3 3 2 2 2 2 2 1
4 3 5 5 5 3 2 2 4 2 3 2 3 2 3 2 1 2 2 2 2 2 3 2 2 4 5 4 3 4 4 4 4 5 5 4 4 3 2 2 2 1 1 1
4 5 6 6 5 1 3 5 3 1 2 3 3 5 4 2 2 2 1 1 2 3 2 2 2 4 4 4 4 5 4 3 3 4 5 4 3 2 2 2 1 1 1 2
4 4 7 4 2 4 5 2 1 1 2 2 3 2 2 2 2 2 2 1 2 3 1 1 2 3 3 4 4 3 3 3 3 3 3 2 3 2 2 2 2 1 1 2
6 6 4 2 4 3 3 2 1 1 1 3 4 2 2 2 1 1 1 1 1 2 1 0 1 3 3 4 3 3 3 3 3 2 2 3 3 3 2 2 2 2 2 2
2 3 3 2 1 1 2 3 2 2 3 4 4 3 3 2 1 1 1 0 1 2 1 1 1 1 2 2 2 3 3 3 3 3 2 2 2 2 2 2 3 3 3 2
3 3 2 2 2 1 1 2 2 2 2 3 3 2 2 1 1 1 0 0 1 2 1 1 1 1 1 1 2 3 3 2 2 2 2 2 2 2 3 4 4 4 4 3
7 6 5 5 4 2 2 2 3 3 2 2 3 3 2 2 1 1 0 0 1 0 0 1 1 1 1 1 3 3 2 2 2 2 1 1 1 1 2 2 3 3 3 3
6 4 4 4 3 3 2 2 2 3 4 3 2 3 3 2 1 1 1 1 1 1 1 1 1 1 2 1 2 3 3 3 2 2 2 2 1 1 1 3 4 2 2 3
2 2 1 2 3 3 3 2 2 1 2 3 3 2 2 2 2 1 1 1 1 1 1 1 1 2 2 2 2 3 3 3 2 3 3 2 2 2 2 1 2 2 3 3
3 3 4 3 2 2 2 3 3 2 1 1 2 3 3 3 2 2 2 1 1 0 1 1 1 3 2 2 2 3 2 2 2 2 2 2 2 1 1 1 1 1 2 2
3 2 3 3 3 2 2 2 3 2 2 2 2 2 3 3 2 2 1 1 1 2 2 2 2 3 2 2 2 2 2 2 2 2 2 2 2 1 1 1 1 1 2 1
4 3 3 3 3 3 3 3 4 3 3 3 3 3 2 2 1 1 1 1 2 3 2 2 3 2 1 1 2 2 2 2 2 2 2 2 2 2 2 2 2 2 2 2
7 6 6 5 5 4 3 2 2 2 3 3 2 2 2 2 2 3 2 1 0 1 2 2 2 1 1 1 1 2 2 2 2 2 2 2 2 2 2 2 2 2 2 1
4 5 4 4 4 4 3 3 2 2 2 2 2 3 3 3 3 2 1 1 1 2 3 3 2 0 1 1 0 1 1 2 2 2 2 2 2 2 2 2 2 2 2 1
3 4 4 4 4 3 3 2 2 2 2 2 2 2 2 2 2 2 2 2 3 4 4 3 2 1 2 1 0 1 1 1 2 2 2 2 2 2 2 2 3 2 2 2
4 4 4 4 3 3 3 3 2 2 1 2 3 3 3 3 2 2 1 2 4 3 2 3 2 2 2 2 1 1 1 1 1 2 2 2 2 2 3 3 3 3 3 3
3 3 4 4 3 2 1 2 2 1 1 1 2 2 2 2 2 2 2 3 4 3 1 2 2 3 3 2 1 2 2 2 2 2 2 3 3 3 3 3 3 3 3 3
3 3 3 3 3 2 1 1 1 2 2 2 2 3 3 3 3 3 3 3 2 3 1 2 4 4 3 2 2 2 3 3 3 3 3 3 3 3 3 3 3 2 2 2
3 3 3 2 3 2 2 2 1 1 1 1 2 2 2 2 2 3 3 3 3 3 2 4 5 4 3 1 2 2 3 3 3 3 3 3 3 2 2 2 2 2 2 2
2 2 2 3 2 2 3 2 1 0 0 1 2 2 1 2 3 3 3 3 4 3 2 4 4 4 2 2 2 3 3 3 3 2 2 2 2 2 2 2 2 2 2 2
2 2 2 3 3 2 2 1 1 1 1 1 2 2 2 2 2 1 2 2 3 3 2 2 3 3 2 2 3 3 3 3 3 2 3 3 3 3 2 2 2 2 2 2
2 1 1 0 0 1 1 1 2 2 2 2 2 3 2 2 1 1 1 2 2 2 2 2 2 2 2 2 2 2 2 2 2 2 2 2 2 2 2 2 2 2 2 2
Wind_Direction
231 240 225 229 242 229 203 196 203 229 223 242 232 212 201 183 168 150 154 166 172 175 178 176 176 179 180 181 175 164 156 164 181 184 177 168 166 167 164 153 171 171 156 266
293 278 278 268 261 231 220 207 208 215 245 246 227 171 148 158 159 159 171 180 183 182 174 174 179 182 177 182 179 160 160 176 180 173 169 175 179 164 147 144 155 149 202 234
281 304 346 285 256 221 211 215 191 211 231 230 178 170 181 182 176 177 185 180 171 187 194 189 182 174 176 182 169 159 164 172 173 172 175 183 176 159 168 180 177 208 249 249
245 359 250 252 286 195 167 228 217 177 210 199 179 186 179 163 159 174 180 185 191 187 187 192 181 168 165 155 155 163 167 175 177 173 178 177 169 178 192 190 190 208 240 253
144 232 277 291 296 231 173 273 289 178 186 177 154 79 16 290 161 171 181 188 191 186 177 171 171 168 148 147 152 159 178 185 185 177 173 172 182 194 197 193 209 218 227 243
148 183 237 256 274 266 136 265 296 194 183 187 123 118 262 271 157 149 155 160 168 172 152 150 171 152 144 158 162 190 202 198 188 179 178 183 192 193 192 191 209 220 242 256
178 210 251 257 279 60 164 239 273 205 176 171 180 201 209 179 139 132 133 149 147 141 148 190 175 143 150 162 193 211 199 183 181 184 187 188 185 182 173 170 175 232 260 284
165 201 248 266 112 165 216 225 217 201 178 152 167 162 147 142 143 120 94 86 135 137 156 189 147 140 159 195 211 189 166 168 180 185 186 175 170 177 175 168 179 225 252 295
191 214 238 220 194 202 164 156 190 171 178 147 144 151 143 138 121 98 108 97 112 130 123 44 160 155 179 217 191 159 155 171 185 181 175 171 176 183 185 185 197 221 225 258
227 255 257 261 246 127 134 154 170 151 141 139 151 161 146 129 104 67 37 76 97 109 104 326 274 212 207 210 170 154 161 173 171 171 182 185 186 184 187 202 210 221 227 237
246 258 312 309 259 210 157 119 106 96 112 131 135 141 144 145 162 158 10 344 125 138 162 247 254 244 265 174 148 151 160 164 169 183 191 195 202 210 210 218 216 216 221 217
232 226 203 236 243 222 172 174 160 143 116 114 144 164 160 172 190 154 108 63 98 120 194 260 256 247 250 182 155 152 161 177 184 191 197 189 191 322 324 289 280 251 237 226
227 225 207 219 210 195 179 192 187 166 164 159 156 158 161 171 174 115 88 90 173 237 247 251 246 245 239 196 169 168 183 193 194 198 202 202 192 195 299 343 349 324 274 250
209 155 201 220 218 193 166 176 157 130 139 148 151 147 142 137 129 116 121 231 228 244 284 267 246 251 249 196 172 176 184 193 191 201 204 203 208 211 216 234 293 316 311 292
235 210 207 209 184 166 147 135 126 129 128 144 150 149 150 155 179 209 223 217 171 1 292 290 275 271 263 194 172 177 181 192 197 195 193 193 197 197 208 225 242 279 321 330
219 192 168 166 172 167 150 154 169 194 194 199 193 188 186 185 195 208 224 179 171 241 255 258 268 273 255 200 181 183 194 196 178 174 177 176 181 187 201 211 227 255 267 266
185 201 197 196 198 198 199 201 194 198 199 196 202 195 169 152 154 231 267 256 225 232 235 238 258 274 261 212 194 197 193 194 180 169 188 194 193 199 206 206 218 240 255 270
199 199 193 190 191 196 202 194 182 182 192 199 174 152 151 167 203 231 248 259 264 306 289 262 257 266 278 251 198 198 191 192 193 198 203 202 207 207 208 213 226 240 260 274
190 188 188 183 183 185 194 203 204 212 203 178 167 179 191 202 215 222 219 196 211 251 269 265 253 200 252 264 177 178 195 188 194 210 210 215 216 214 216 222 234 244 253 267
170 169 166 168 166 168 182 195 194 202 206 182 172 180 205 233 228 213 200 225 237 236 234 231 206 210 233 239 183 160 189 208 215 217 208 209 217 226 226 231 239 242 246 250
175 174 172 170 171 173 183 181 178 198 224 186 179 198 217 235 229 198 191 262 276 263 240 228 207 221 226 215 188 176 198 222 235 235 224 223 227 233 238 240 243 244 244 246
176 173 177 178 176 190 200 178 178 195 209 218 210 205 209 235 240 235 234 237 252 262 247 232 229 228 219 203 189 204 216 222 228 233 236 233 232 235 239 243 244 249 250 249
173 178 175 177 181 185 176 169 186 194 207 223 228 220 216 225 218 209 254 263 249 251 239 238 244 242 234 198 201 213 217 218 224 228 234 237 237 238 241 245 248 249 250 254
168 173 176 165 146 150 195 236 226 220 232 247 248 233 214 223 249 239 231 243 249 255 247 244 247 247 236 202 211 217 220 226 231 233 236 240 240 244 246 244 247 252 248 250
167 162 154 154 171 204 217 216 201 245 310 305 297 296 259 222 233 248 247 238 245 253 259 261 256 248 225 215 220 225 229 231 228 223 226 234 236 239 240 243 244 245 246 248
167 174 192 204 207 208 201 186 201 220 219 270 293 292 294 289 277 267 259 253 250 254 256 255 252 238 218 218 225 228 228 236 243 236 224 222 224 228 233 239 242 248 253 251
155 158 158 170 242 200 187 184 202 225 223 222 252 270 273 284 280 269 269 264 262 255 252 247 241 229 224 228 231 228 224 221 220 221 220 220 218 222 224 232 241 248 261 264
Height
1510 1506 1506 1506 1506 1505 1509 1513 1519 1514 1511 1506 1502 1501 1501 1501 1501 1502 1503 1503 1504 1505 1506 1507 1508 1509 1510 1510 1511 1511 1511 1512 1512 1513 1513 1513 1513 1512 1512 1512 1512 1512 1511 1511
1510 1504 1504 1506 1503 1502 1503 1504 1507 1507 1507 1500 1499 1499 1499 1500 1500 1501 1501 1502 1503 1503 1504 1504 1505 1506 1507 1508 1508 1508 1509 1509 1509 1510 1510 1510 1510 1510 1509 1509 1509 1509 1509 1508
1519 1510 1507 1512 1503 1501 1501 1500 1501 1505 1503 1498 1498 1498 1498 1498 1499 1499 1500 1500 1501 1502 1502 1502 1503 1503 1504 1505 1505 1506 1506 1506 1507 1507 1507 1507 1507 1507 1506 1506 1506 1506 1506 1505
1521 1517 1520 1509 1497 1496 1498 1498 1497 1497 1497 1496 1496 1496 1496 1497 1497 1498 1498 1499 1499 1499 1500 1500 1501 1501 1502 1502 1503 1503 1503 1503 1503 1504 1504 1504 1504 1503 1503 1503 1503 1502 1502 1501
1523 1523 1517 1505 1497 1497 1499 1500 1496 1496 1495 1495 1495 1495 1496 1496 1496 1496 1496 1497 1497 1497 1497 1498 1498 1498 1499 1499 1499 1500 1499 1500 1500 1501 1501 1501 1500 1500 1500 1500 1499 1499 1498 1498
1520 1521 1520 1506 1496 1493 1497 1503 1495 1494 1493 1494 1494 1499 1498 1495 1495 1494 1495 1495 1495 1495 1495 1495 1495 1496 1496 1496 1496 1496 1496 1497 1497 1498 1497 1497 1497 1497 1497 1497 1496 1496 1495 1494
1518 1519 1511 1499 1493 1493 1505 1503 1494 1493 1492 1492 1492 1494 1494 1493 1493 1493 1493 1493 1493 1492 1492 1492 1493 1493 1493 1493 1493 1493 1493 1494 1494 1494 1494 1494 1494 1494 1494 1493 1493 1492 1492 1491
1516 1518 1512 1494 1493 1497 1497 1493 1492 1491 1491 1491 1491 1491 1491 1491 1491 1491 1491 1491 1491 1490 1490 1490 1490 1490 1490 1490 1490 1491 1491 1491 1491 1491 1491 1491 1491 1491 1490 1490 1489 1488 1488 1487
1504 1503 1494 1491 1490 1491 1491 1491 1491 1490 1490 1490 1490 1490 1490 1490 1490 1489 1489 1489 1489 1488 1488 1488 1488 1487 1487 1487 1487 1487 1487 1487 1487 1488 1488 1487 1487 1487 1487 1486 1486 1485 1484 1484
1498 1494 1491 1490 1489 1489 1489 1489 1489 1489 1489 1489 1488 1489 1488 1488 1488 1488 1488 1488 1487 1487 1486 1486 1485 1485 1485 1485 1485 1484 1484 1484 1484 1484 1484 1484 1484 1484 1483 1482 1482 1482 1481 1481
1495 1492 1490 1489 1488 1488 1488 1488 1488 1488 1488 1487 1487 1487 1487 1487 1487 1487 1487 1486 1486 1485 1484 1484 1483 1483 1482 1482 1482 1481 1481 1481 1481 1481 1481 1480 1480 1480 1480 1480 1479 1479 1479 1478
1492 1487 1487 1487 1487 1487 1487 1486 1486 1486 1486 1486 1486 1486 1486 1486 1485 1485 1485 1484 1483 1483 1482 1481 1481 1480 1480 1479 1479 1478 1478 1478 1478 1478 1477 1477 1477 1477 1477 1477 1477 1477 1476 1476
1483 1483 1483 1483 1484 1484 1484 1484 1484 1484 1484 1484 1484 1484 1484 1484 1484 1483 1482 1482 1481 1480 1480 1479 1478 1477 1477 1476 1476 1475 1475 1475 1474 1474 1474 1474 1473 1473 1473 1473 1473 1473 1473 1472
1481 1481 1480 1481 1481 1481 1482 1482 1482 1482 1482 1482 1482 1482 1482 1481 1481 1481 1480 1480 1479 1478 1477 1476 1475 1474 1474 1473 1473 1472 1472 1472 1471 1471 1471 1470 1470 1470 1469 1469 1468 1468 1468 1468
1478 1478 1478 1478 1478 1479 1479 1479 1479 1479 1479 1479 1479 1479 1479 1479 1478 1478 1478 1477 1476 1475 1475 1473 1472 1472 1471 1471 1470 1470 1469 1468 1468 1467 1467 1467 1467 1466 1466 1466 1465 1465 1464 1464
1475 1475 1475 1475 1475 1476 1476 1476 1476 1476 1476 1476 1476 1476 1476 1476 1476 1475 1475 1474 1473 1472 1472 1471 1470 1469 1468 1468 1467 1466 1466 1465 1465 1464 1464 1463 1463 1463 1462 1462 1462 1461 1460 1460
1471 1471 1472 1472 1472 1473 1473 1473 1473 1473 1473 1473 1473 1473 1473 1473 1473 1473 1472 1472 1471 1470 1469 1468 1467 1466 1466 1465 1464 1463 1463 1462 1462 1461 1460 1460 1460 1459 1459 1459 1458 1457 1457 1456
1467 1467 1468 1469 1469 1470 1470 1470 1470 1470 1470 1470 1470 1470 1470 1470 1470 1470 1469 1469 1468 1467 1466 1466 1465 1464 1463 1462 1461 1460 1460 1459 1458 1458 1457 1457 1456 1456 1455 1455 1454 1454 1453 1453
1463 1464 1465 1466 1467 1467 1467 1467 1467 1467 1467 1468 1467 1467 1467 1467 1467 1467 1466 1465 1465 1464 1463 1463 1462 1461 1460 1459 1458 1457 1456 1456 1455 1455 1454 1454 1453 1452 1452 1451 1450 1450 1449 1449
1461 1462 1462 1463 1464 1464 1464 1464 1464 1465 1465 1465 1464 1464 1464 1464 1464 1463 1463 1462 1462 1461 1460 1460 1459 1458 1457 1456 1455 1454 1454 1453 1452 1451 1450 1450 1449 1449 1448 1448 1447 1446 1446 1445
1458 1459 1459 1460 1460 1461 1461 1462 1462 1462 1462 1462 1461 1461 1461 1461 1461 1460 1460 1459 1459 1458 1457 1456 1455 1454 1454 1453 1452 1451 1450 1450 1449 1448 1447 1446 1446 1445 1445 1444 1444 1443 1442 1441
1456 1457 1457 1457 1458 1458 1458 1459 1459 1458 1458 1458 1458 1458 1458 1457 1457 1457 1457 1456 1455 1455 1454 1453 1452 1451 1450 1449 1448 1448 1447 1446 1445 1444 1444 1443 1442 1441 1441 1440 1440 1439 1438 1437
1454 1454 1455 1455 1455 1455 1456 1455 1455 1455 1455 1455 1454 1454 1454 1453 1453 1453 1453 1452 1452 1451 1450 1449 1448 1447 1446 1445 1444 1443 1442 1442 1441 1440 1439 1439 1438 1437 1437 1436 1436 1435 1435 1434
1451 1452 1452 1452 1452 1452 1452 1452 1452 1452 1452 1451 1451 1451 1450 1450 1450 1450 1449 1448 1448 1447 1446 1445 1444 1443 1442 1441 1440 1439 1438 1437 1437 1436 1435 1435 1434 1433 1433 1432 1432 1431 1431 1430
1449 1449 1449 1449 1449 1449 1449 1449 1449 1448 1448 1448 1447 1447 1447 1446 1446 1445 1445 1444 1443 1442 1441 1441 1440 1439 1438 1437 1436 1435 1434 1433 1433 1432 1431 1430 1430 1429 1429 1429 1428 1427 1427 1426
1446 1446 1446 1446 1446 1446 1446 1446 1445 1445 1444 1444 1443 1443 1443 1442 1442 1441 1441 1440 1439 1438 1437 1436 1436 1435 1434 1433 1432 1431 1430 1429 1428 1428 1427 1426 1426 1426 1425 1425 1424 1424 1423 1423
1443 1443 1443 1443 1443 1443 1443 1442 1442 1441 1441 1440 1439 1439 1439 1438 1437 1437 1436 1436 1435 1434 1433 1432 1431 1430 1429 1428 1428 1426 1426 1425 1424 1423 1423 1423 1422 1422 1421 1421 1421 1420 1420 1419